THOR ABLESTAR DEB, 5785

Orbit data source: Space-Track

THOR ABLESTAR DEB, 5785 is space debris in LEO originally from a launch on Thu, 29 Jun 1961 UTC launched from the Air Force Eastern Test Range (AFETR). Debris objects in space refer to the collection of defunct objects orbiting the Earth. Examples of debris include non-operational satellites, rocket bodies, and fragments generated from explosions, collisions, or faulty payload assembly.

Loading next visibility...
Identifier
5785, 1961-015JZ
Orbit
LEO
Country
Flag of USUS
Related business
Manufacturer
Unknown
Mission
Spacecraft
Bus & Motor
Unknown
Mass
Unknown
Launch date (UTC)
1961-06-29 (65 years ago)
Launch vehicle
Unknown
Launch site
Air Force Eastern Test Range (AFETR)
Object type
Payload
Rocket body
Debris
Shape & HBR
Unknown shape, 0.1 m
Radar Cross Section
Small (<0.1 m²)

Expand to show TLE details & history
Last TLE update: 1 day ago

TLE from 1 day ago
0 THOR ABLESTAR DEB
1 05785U 61015JZ  26126.06073695  .00000420  00000-0  41423-3 0  9994
2 05785  65.6379 140.5824 0140454 346.2346  13.4905 13.84767442280180
Epoch: 2026-05-06T01:27Z
TLE epoch observation values (Epoch: 2026-05-06T01:27:27.672Z)
Latitude
-0.00007°
Longitude
-105.20958°
Altitude
849.03 km
Speed
7.479 km/s
True Right ascension
09h 22m 19s
True Declination
0° 00' 00"
Sunlit
Object was in daylight at epoch
Visualization orbit readout
Latitude
Unknown
Longitude
Unknown
Altitude
Unknown
Speed
Unknown
Apparent Right ascension
Unknown
Apparent Declination
Unknown
Sunlit
N/A
Visualization observer readout
Local Sidereal Time
19:08:39
Azimuth
Unknown
Elevation
Unknown
Doppler factor
Unknown
Orbital elements
Apogee altitude
1,048.423 km
Perigee altitude
842.694 km
Semi-major axis
7,323.695 km
Eccentricity
0.01405
Inclination
65.6379°
RAAN
140.5824°
Arg. of periapsis
346.2346°
True anomaly
13.87248°
Mean anomaly
13.4905°
Eccentric anomaly
13.68083°
Mean motion
3.46296 °/min
Orbital period
103.96 mins
BSTAR
0.00041423
Loading maneuver chart data...
Computing Atmospheric mass density...
Loading historical data...
Loading historical data...
Loading historical data...
Loading historical data...
Loading historical data...
Loading historical data...
Loading historical data...

Documentation

Showing up to 5 results
|